Regional Weather Roundup
Issued by NWS Memphis, TN

Home | Current Version | Previous Version | Text Only | Print | Product List | Glossary On
Versions: 1 2 3 4 5 6 7 8 9 10 11 12 13 14 15 16 17 18 19 20 21 22 23 24 25 26 27 28 29 30 31 32 33 34 35 36 37 38 39 40 41 42 43 44 45 46 47 48 49 50
000
ASUS44 KMEG 161210
RWRMEG
MEMPHIS CWA HOURLY WEATHER ROUNDUP
NATIONAL WEATHER SERVICE MEMPHIS TN
600 AM CST SAT DEC 16 2017

...WEST TENNESSEE...

CITY           SKY/WX    TMP DP  RH WIND       PRES   REMARKS
MEMPHIS INTL   CLOUDY    34  27  75 S9        30.20R WCI  27
6HR MIN TEMP:  33; 6HR MAX TEMP:  37;

NWS MEMPHIS      N/A     36 N/A N/A MISG        N/A
JACKSON        CLOUDY    34  27  75 SW10      30.20R WCI  26
6HR MIN TEMP:  32; 6HR MAX TEMP:  34;

COVINGTON      PTCLDY    32  27  80 S9        30.19R WCI  24
SOMERVILLE     PTCLDY    34  27  75 S7        30.18S WCI  28
BOLIVAR        PTCLDY    32  25  74 CALM      30.20R
LEXINGTON      CLEAR     30  25  80 CALM      30.21R
SELMER         CLEAR     30  25  80 VRB5      30.21R WCI  25
SAVANNAH       CLEAR     32  27  80 S6        30.23R WCI  26
DYERSBURG      CLOUDY    33  26  75 S5        30.18R WCI  29
6HR MIN TEMP:  33; 6HR MAX TEMP:  38;

UNION CITY     CLEAR     28  25  86 S9        30.16S WCI  20
PARIS          PTCLDY    28  25  86 S8        30.16S WCI  20
HUNTINGDON     PTCLDY    32  25  74 S5        30.17S WCI  27


...EASTERN ARKANSAS...

CITY           SKY/WX    TMP DP  RH WIND       PRES   REMARKS
JONESBORO      CLOUDY    30  27  88 S7        30.16R WCI  23
6HR MIN TEMP:  30; 6HR MAX TEMP:  37;

WEST MEMPHIS   CLOUDY    33  28  81 S7        30.19R WCI  27
6HR MIN TEMP:  29; 6HR MAX TEMP:  34;

BATESVILLE     PTCLDY    36  28  73 E5        30.15R WCI  32
6HR MIN TEMP:  33; 6HR MAX TEMP:  38;

NEWPORT        PTCLDY    32  29  88 SW14      30.15R WCI  22
6HR MIN TEMP:  28; 6HR MAX TEMP:  33;

WALNUT RIDGE   CLOUDY    28  26  92 S7        30.14R WCI  21
6HR MIN TEMP:  27; 6HR MAX TEMP:  33;

BLYTHEVILLE    CLOUDY    33  28  81 S8        30.17R WCI  26
6HR MIN TEMP:  33; 6HR MAX TEMP:  36;

SEARCY         CLOUDY    24  24 100 SW3       30.19R
6HR MIN TEMP:  24; 6HR MAX TEMP:  28;

STUTTGART      CLOUDY    33  29  85 S10       30.20S WCI  25
6HR MIN TEMP:  32; 6HR MAX TEMP:  36;

PINE BLUFF     CLOUDY    31  27  85 SW6       30.22R WCI  25
6HR MIN TEMP:  31; 6HR MAX TEMP:  35;

MONTICELLO     CLOUDY    39  30  70 SW9       30.23R WCI  33
6HR MIN TEMP:  37; 6HR MAX TEMP:  41;



...NORTH MISSISSIPPI...

CITY           SKY/WX    TMP DP  RH WIND       PRES   REMARKS
TUPELO         PTCLDY    27  23  85 S5        30.27R WCI  22
6HR MIN TEMP:  25; 6HR MAX TEMP:  29;

OXFORD         PTCLDY    30  25  80 VRB3      30.26R
BATESVILLE     CLOUDY    24  22  93 CALM      30.26R
6HR MIN TEMP:  24; 6HR MAX TEMP:  26;

TUNICA           N/A    N/A N/A N/A S8        30.24R
CLARKSDALE     MOCLDY    30  28  93 S7        30.25R WCI  23
CORINTH        PTCLDY    27  23  86 SE3       30.24R
GREENWOOD      CLOUDY    27  24  89 CALM      30.27R
6HR MIN TEMP:  26; 6HR MAX TEMP:  30;

COLUMBUS       CLOUDY    21  19  94 CALM      30.28R
6HR MIN TEMP:  21; 6HR MAX TEMP:  26;

STARKVILLE     CLOUDY    23  21  93 CALM      30.29R
GOLDEN TRIANGL CLOUDY    23  21  92 CALM      30.29R
6HR MIN TEMP:  23; 6HR MAX TEMP:  27;



...SOUTHEAST MISSOURI...

CITY           SKY/WX    TMP DP  RH WIND       PRES   REMARKS
KENNETT        CLOUDY    34  30  86 SW8       30.15R WCI  27
MALDEN         CLEAR     32  28  86 S8        30.15R WCI  25
WEST PLAINS    CLOUDY    31  25  78 SW6       30.07S WCI  25
6HR MIN TEMP:  30; 6HR MAX TEMP:  34;

POPLAR BLUFF   CLOUDY    31  27  85 S5        30.12R WCI  26
6HR MIN TEMP:  30; 6HR MAX TEMP:  33;

CAPE GIRARDEAU CLEAR     28  24  85 S3        30.11S
6HR MIN TEMP:  27; 6HR MAX TEMP:  33;



...NORTHWEST ALABAMA...

CITY           SKY/WX    TMP DP  RH WIND       PRES   REMARKS
MUSCLE SHOALS  CLOUDY    24  20  84 SE5       30.27R WCI  18
6HR MIN TEMP:  22; 6HR MAX TEMP:  27;



...MIDDLE TENNESSEE...

CITY           SKY/WX    TMP DP  RH WIND       PRES   REMARKS
NASHVILLE      CLOUDY    29  23  78 S3        30.22R
6HR MIN TEMP:  27; 6HR MAX TEMP:  31;

CLARKSVILLE    CLEAR     32  24  72 S9        30.18R WCI  24
6HR MIN TEMP:  30; 6HR MAX TEMP:  33;

COLUMBIA       PTCLDY    27  25  93 CALM      30.21R


...WESTERN KENTUCKY...

CITY           SKY/WX    TMP DP  RH WIND       PRES   REMARKS
PADUCAH        CLEAR     33  25  72 S6        30.13R WCI  28
6HR MIN TEMP:  33; 6HR MAX TEMP:  37;

FORT CAMPBELL  CLEAR     32  25  74 S10       30.17R WCI  24
6HR MIN TEMP:  32; 6HR MAX TEMP:  35;



...CENTRAL ARKANSAS...

CITY           SKY/WX    TMP DP  RH WIND       PRES   REMARKS
LITTLE ROCK    CLOUDY    29  28  96 SW6       30.20R WCI  23
6HR MIN TEMP:  28; 6HR MAX TEMP:  36;



SKY/WX REPORTED AS FAIR MEANS FEW OR NO CLOUDS BELOW
12 THOUSAND FEET.





USA.gov is the U.S. government's official web portal to all federal, state and local government web resources and services.